GW4614 Weather Reports


time (UTC)temp
C
wind
direction
speed
KPH
gust
KPH
rain 1hr
cm
rain 24hr
cm
rain mn
cm
humidity
%
barometer
mb
20260507231553 14 232 4.8 17.7 0.00 0.00 0.00 42 1010.5
20260507231051 14 187 3.2 11.3 0.00 0.00 0.00 41 1010.5
20260507230547 14 12 6.4 6.4 0.00 0.00 0.00 43 1010.5
20260507230044 14 76 1.6 3.2 0.00 0.00 0.00 43 1010.6
20260507225538 14 207 12.9 22.5 0.00 0.00 0.00 42 1010.5
20260507225035 15 249 8.0 11.3 0.00 0.00 0.00 45 1010.3
20260507224531 15 242 6.4 16.1 0.00 0.00 0.00 43 1010.1
20260507224028 15 333 17.7 27.4 0.00 0.00 0.00 43 1010.2
20260507223524 15 247 8.0 9.7 0.00 0.00 0.00 43 1010.0
20260507223021 15 114 1.6 3.2 0.00 0.00 0.00 43 1010.0
20260507222518 15 213 1.6 3.2 0.00 0.00 0.00 42 1010.2
20260507222014 15 304 1.6 1.6 0.00 0.00 0.00 43 1010.0
20260507221511 15 188 1.6 3.2 0.00 0.00 0.00 41 1009.9
20260507221008 15 303 9.7 12.9 0.00 0.00 0.00 40 1009.9
20260507220505 16 278 4.8 6.4 0.00 0.00 0.00 42 1009.7
20260507220002 16 273 12.9 17.7 0.00 0.00 0.00 41 1009.6
20260507215458 16 338 3.2 4.8 0.00 0.00 0.00 39 1009.8
20260507214956 16 298 9.7 14.5 0.00 0.00 0.00 37 1009.5
20260507214453 17 22 3.2 6.4 0.00 0.00 0.00 45 1009.6
20260507213949 16 35 0.0 0.0 0.00 0.00 0.00 43 1009.5
20260507213445 16 84 3.2 6.4 0.00 0.00 0.00 38 1009.4
20260507212943 16 337 9.7 12.9 0.00 0.00 0.00 43 1009.4
20260507212438 16 337 9.7 12.9 0.00 0.00 0.00 43 1009.6
20260507211936 16 313 14.5 17.7 0.00 0.00 0.00 44 1009.6
20260507211432 16 345 9.7 11.3 0.00 0.00 0.00 41 1009.4
20260507210929 16 354 9.7 14.5 0.00 0.00 0.00 39 1009.3
20260507210426 17 338 16.1 17.7 0.00 0.00 0.00 40 1009.4
20260507205923 16 171 1.6 1.6 0.00 0.00 0.00 44 1009.3
20260507205420 16 331 6.4 9.7 0.00 0.00 0.00 43 1009.4
20260507204916 17 306 4.8 6.4 0.00 0.00 0.00 40 1009.3
20260507204412 17 302 9.7 11.3 0.00 0.00 0.00 39 1009.5
20260507203910 16 300 8.0 11.3 0.00 0.00 0.00 41 1009.5
20260507203408 16 316 9.7 12.9 0.00 0.00 0.00 41 1009.2
20260507202904 16 300 12.9 20.9 0.00 0.00 0.00 41 1009.4
20260507202400 17 314 12.9 16.1 0.00 0.00 0.00 41 1009.5
20260507201856 17 282 8.0 11.3 0.00 0.00 0.00 44 1009.7
20260507201351 17 316 17.7 24.1 0.00 0.00 0.00 42 1009.5
20260507200848 17 329 16.1 20.9 0.00 0.00 0.00 42 1009.3
20260507200344 17 22 4.8 6.4 0.00 0.00 0.00 42 1009.4
20260507195840 17 161 3.2 4.8 0.00 0.00 0.00 45 1009.4
20260507195338 16 317 3.2 4.8 0.00 0.00 0.00 47 1009.3
20260507194835 16 302 8.0 14.5 0.00 0.00 0.00 45 1009.4
20260507194331 16 304 6.4 9.7 0.00 0.00 0.00 46 1009.5
20260507193828 16 168 1.6 1.6 0.00 0.00 0.00 42 1009.7
20260507193325 16 44 3.2 4.8 0.00 0.00 0.00 44 1009.7
20260507192820 16 316 4.8 11.3 0.00 0.00 0.00 49 1009.7
20260507192318 17 321 1.6 11.3 0.00 0.00 0.00 44 1009.7
20260507191814 17 72 1.6 6.4 0.00 0.00 0.00 48 1009.6
20260507191310 17 295 0.0 3.2 0.00 0.00 0.00 45 1009.9
20260507190807 17 321 1.6 4.8 0.00 0.00 0.00 42 1009.9
20260507190306 17 312 3.2 12.9 0.00 0.00 0.00 51 1009.8
20260507185804 17 316 4.8 4.8 0.00 0.00 0.00 44 1009.7
20260507185300 16 198 4.8 9.7 0.00 0.00 0.00 48 1010.0
20260507184758 16 327 3.2 4.8 0.00 0.00 0.00 48 1010.0
20260507184256 18 322 6.4 9.7 0.00 0.00 0.00 47 1010.1
20260507183752 17 90 3.2 9.7 0.00 0.00 0.00 44 1010.2
20260507183250 17 291 9.7 20.9 0.00 0.00 0.00 48 1010.2
20260507182747 17 299 8.0 9.7 0.00 0.00 0.00 46 1010.1
20260507182242 17 108 1.6 1.6 0.00 0.00 0.00 47 1010.1
20260507181739 17 310 0.0 3.2 0.00 0.00 0.00 51 1010.2
20260507181235 16 59 1.6 3.2 0.00 0.00 0.00 48 1009.9
20260507180732 15 66 3.2 3.2 0.00 0.00 0.00 52 1010.3
20260507180229 14 51 8.0 11.3 0.00 0.00 0.00 54 1010.3
20260507175724 14 66 8.0 9.7 0.00 0.00 0.00 54 1010.4
20260507175221 14 80 8.0 11.3 0.00 0.00 0.00 54 1010.6
20260507174719 15 321 11.3 12.9 0.00 0.00 0.00 55 1010.5
20260507174217 15 356 6.4 9.7 0.00 0.00 0.00 54 1010.7
20260507173715 15 346 0.0 1.6 0.00 0.00 0.00 53 1010.7
20260507173211 16 340 4.8 6.4 0.00 0.00 0.00 53 1011.1
20260507172708 -17 0.0 0.0 0.00 0.00 0.00 1011.3
20260507172204 15 296 9.7 12.9 0.00 0.00 0.00 54 1011.0
20260507171658 15 296 9.7 12.9 0.00 0.00 0.00 54 1011.1
20260507171155 15 355 6.4 6.4 0.00 0.00 0.00 57 1011.3
20260507170652 15 346 12.9 14.5 0.00 0.00 0.00 54 1011.1
20260507170150 15 346 12.9 14.5 0.00 0.00 0.00 54 1011.3
20260507165645 16 302 3.2 4.8 0.00 0.00 0.00 52 1011.2
20260507165142 16 302 3.2 4.8 0.00 0.00 0.00 52 1011.4
20260507164637 15 333 11.3 12.9 0.00 0.00 0.00 60 1011.4
20260507164135 -17 0.0 0.0 0.00 0.00 0.00 1011.7
20260507163632 -17 0.0 0.0 0.00 0.00 0.00 1011.6
20260507163130 14 292 3.2 3.2 0.00 0.00 0.00 61 1011.8
20260507162626 14 292 3.2 3.2 0.00 0.00 0.00 61 1011.8
20260507162122 14 156 1.6 1.6 0.00 0.00 0.00 62 1012.1
20260507161618 13 337 9.7 11.3 0.00 0.00 0.00 61 1012.1
20260507161115 13 300 14.5 16.1 0.00 0.00 0.00 59 1012.0
20260507160611 -17 0.0 0.0 0.00 0.00 0.00 1011.9
20260507160108 12 283 9.7 11.3 0.00 0.00 0.00 62 1012.4
20260507155603 12 283 9.7 11.3 0.00 0.00 0.00 62 1012.4
20260507155100 12 48 6.4 6.4 0.00 0.00 0.00 61 1012.3
20260507154557 12 348 8.0 9.7 0.00 0.00 0.00 65 1012.3
20260507154054 13 351 8.0 11.3 0.00 0.00 0.00 61 1012.3
20260507153551 13 300 6.4 6.4 0.00 0.00 0.00 58 1012.4
20260507153047 13 300 6.4 6.4 0.00 0.00 0.00 58 1012.6
20260507152543 -17 0.0 0.0 0.00 0.00 0.00 1012.5
20260507152040 12 319 11.3 14.5 0.00 0.00 0.00 59 1012.6
20260507151536 12 319 11.3 14.5 0.00 0.00 0.00 59 1012.9
20260507151033 12 314 14.5 17.7 0.00 0.00 0.00 59 1012.9
20260507150530 12 314 14.5 17.7 0.00 0.00 0.00 59 1013.0
20260507150027 12 320 6.4 9.7 0.00 0.00 0.00 62 1012.7
20260507145522 12 233 4.8 6.4 0.00 0.00 0.00 59 1012.9
20260507145020 12 354 9.7 12.9 0.00 0.00 0.00 58 1013.2
20260507144516 12 274 6.4 9.7 0.00 0.00 0.00 63 1013.2
20260507144014 12 282 1.6 3.2 0.00 0.00 0.00 62 1013.1
20260507143511 12 344 8.0 11.3 0.00 0.00 0.00 63 1013.3
20260507143008 12 319 4.8 4.8 0.00 0.00 0.00 65 1013.4
20260507142503 11 315 4.8 4.8 0.00 0.00 0.00 65 1013.4
20260507142000 11 178 1.6 3.2 0.00 0.00 0.00 65 1013.5
20260507141456 11 239 1.6 3.2 0.00 0.00 0.00 69 1013.5
20260507140953 11 239 1.6 3.2 0.00 0.00 0.00 69 1013.8
20260507140450 10 357 4.8 4.8 0.00 0.00 0.00 69 1013.6
20260507135947 11 292 1.6 1.6 0.00 0.00 0.00 69 1013.6
20260507135444 -17 0.0 0.0 0.00 0.00 0.00 1013.8
20260507134941 -17 0.0 0.0 0.00 0.00 0.00 1013.7
20260507134438 -17 0.0 0.0 0.00 0.00 0.00 1013.7
20260507133934 -17 0.0 0.0 0.00 0.00 0.00 1013.9
20260507133430 -17 0.0 0.0 0.00 0.00 0.00 1013.9
20260507132929 10 210 1.6 1.6 0.00 0.00 0.00 76 1014.1
20260507132424 10 210 1.6 1.6 0.00 0.00 0.00 76 1014.1
20260507131921 10 236 0.0 1.6 0.00 0.00 0.00 79 1014.1
20260507131418 10 236 0.0 1.6 0.00 0.00 0.00 79 1014.2
20260507130915 9 294 0.0 0.0 0.00 0.00 0.00 78 1014.3
20260507130412 -17 0.0 0.0 0.00 0.00 0.00 1014.0
20260507125911 -17 0.0 0.0 0.00 0.00 0.00 1014.1
20260507125408 -17 0.0 0.0 0.00 0.00 0.00 1014.1
20260507124906 9 115 1.6 1.6 0.00 0.00 0.00 77 1014.0
20260507124401 9 10 3.2 3.2 0.00 0.00 0.00 77 1014.1
20260507123900 9 282 0.0 1.6 0.00 0.00 0.00 77 1014.1
20260507123357 9 282 0.0 1.6 0.00 0.00 0.00 77 1013.8
20260507122853 9 306 0.0 0.0 0.00 0.00 0.00 76 1014.1
20260507122349 9 349 1.6 1.6 0.00 0.00 0.00 76 1013.9
20260507121845 9 217 3.2 3.2 0.00 0.00 0.00 77 1013.7
20260507121341 9 7 3.2 3.2 0.00 0.00 0.00 77 1013.7
20260507120837 9 313 1.6 3.2 0.00 0.00 0.00 77 1013.9
20260507120334 9 15 3.2 4.8 0.00 0.00 0.00 82 1013.9
20260507115830 9 73 0.0 0.0 0.00 0.00 0.00 80 1013.8
20260507115326 9 38 3.2 4.8 0.00 0.00 0.00 81 1014.1
20260507114822 9 25 3.2 4.8 0.00 0.00 0.00 83 1013.6
20260507114319 9 248 0.0 1.6 0.00 0.00 0.00 83 1013.5
20260507113817 9 155 1.6 1.6 0.00 0.00 0.00 83 1013.6
20260507113313 9 88 1.6 1.6 0.00 0.00 0.00 82 1013.6
20260507112811 9 61 0.0 1.6 0.00 0.00 0.00 82 1013.5
20260507112308 9 340 1.6 1.6 0.00 0.00 0.00 81 1013.6
20260507111806 9 96 0.0 0.0 0.00 0.00 0.00 82 1013.5
20260507111302 9 96 0.0 0.0 0.00 0.00 0.00 82 1013.5
20260507110758 9 309 0.0 1.6 0.00 0.00 0.00 82 1013.4
20260507110255 9 327 1.6 6.4 0.00 0.00 0.00 80 1013.2
20260507105752 9 57 4.8 4.8 0.00 0.00 0.00 81 1013.2
20260507105247 9 57 4.8 4.8 0.00 0.00 0.00 81 1013.3
20260507104745 9 359 0.0 0.0 0.00 0.00 0.00 82 1013.0
20260507104242 9 316 9.7 11.3 0.00 0.00 0.00 81 1013.4
20260507103737 8 1 0.0 0.0 0.00 0.00 0.00 83 1013.4
20260507103234 8 101 0.0 0.0 0.00 0.00 0.00 83 1013.0
20260507102730 8 31 0.0 0.0 0.00 0.00 0.00 83 1012.9
20260507102227 8 103 0.0 0.0 0.00 0.00 0.00 83 1012.9
20260507101723 9 95 0.0 0.0 0.00 0.00 0.00 83 1012.9
20260507101218 9 87 1.6 1.6 0.00 0.00 0.00 82 1012.9
20260507100716 -17 0.0 0.0 0.00 0.00 0.00 1012.7
20260507100214 -17 0.0 0.0 0.00 0.00 0.00 1013.0
20260507095712 -17 0.0 0.0 0.00 0.00 0.00 1012.6
20260507095208 -17 0.0 0.0 0.00 0.00 0.00 1012.4
20260507094705 -17 0.0 0.0 0.00 0.00 0.00 1012.5
20260507094202 9 3 4.8 4.8 0.00 0.00 0.00 80 1012.9
20260507093659 9 3 4.8 4.8 0.00 0.00 0.00 80 1012.9
20260507093158 9 215 1.6 1.6 0.00 0.00 0.00 80 1012.7
20260507092654 9 83 6.4 9.7 0.00 0.00 0.00 79 1012.9
20260507092151 9 88 1.6 1.6 0.00 0.00 0.00 79 1012.6
20260507091647 9 338 3.2 4.8 0.00 0.00 0.00 81 1012.6
20260507091144 9 264 0.0 0.0 0.00 0.00 0.00 81 1012.6
20260507090639 9 148 0.0 1.6 0.00 0.00 0.00 81 1012.4
20260507090137 9 210 0.0 9.7 0.00 0.00 0.00 81 1012.5
20260507085634 9 327 0.0 1.6 0.00 0.00 0.00 81 1012.6
20260507085130 9 213 1.6 3.2 0.00 0.00 0.00 82 1012.3
20260507084627 9 254 3.2 9.7 0.00 0.00 0.00 80 1012.5
20260507084124 9 318 1.6 1.6 0.00 0.00 0.00 79 1012.6
20260507083620 9 358 3.2 6.4 0.00 0.00 0.00 79 1012.5
20260507083118 9 181 0.0 1.6 0.00 0.00 0.00 80 1012.5
20260507082613 9 157 0.0 1.6 0.00 0.00 0.00 81 1012.5
20260507082104 9 325 4.8 4.8 0.00 0.00 0.00 80 1012.6
20260507081601 -17 0.0 0.0 0.00 0.00 0.00 1012.9
20260507081058 -17 0.0 0.0 0.00 0.00 0.00 1012.6
20260507080554 10 323 1.6 3.2 0.00 0.00 0.00 79 1012.7
20260507080050 10 323 1.6 3.2 0.00 0.00 0.00 79 1013.0
20260507075545 10 72 3.2 4.8 0.00 0.00 0.00 78 1013.0
20260507075042 10 288 3.2 3.2 0.00 0.00 0.00 78 1012.9
20260507074539 10 339 1.6 1.6 0.00 0.00 0.00 80 1012.5
20260507074037 10 144 0.0 0.0 0.00 0.00 0.00 80 1012.4
20260507073533 10 99 1.6 1.6 0.00 0.00 0.00 81 1012.5
20260507073029 9 219 3.2 3.2 0.00 0.00 0.00 81 1012.5
20260507072527 9 117 0.0 0.0 0.00 0.00 0.00 82 1012.3
20260507072024 10 32 0.0 0.0 0.00 0.00 0.00 82 1012.4
20260507071521 10 101 1.6 1.6 0.00 0.00 0.00 80 1012.4
20260507071018 10 68 0.0 0.0 0.00 0.00 0.00 81 1012.4
20260507070515 9 7 1.6 3.2 0.00 0.00 0.00 81 1012.7
20260507070013 10 317 0.0 0.0 0.00 0.00 0.00 83 1012.4
20260507065508 10 317 0.0 0.0 0.00 0.00 0.00 83 1012.5
20260507065006 9 48 3.2 3.2 0.00 0.00 0.00 83 1012.5
20260507064503 9 286 0.0 0.0 0.00 0.00 0.00 83 1012.7
20260507064001 9 272 3.2 4.8 0.00 0.00 0.00 85 1013.0
20260507063458 9 39 0.0 1.6 0.00 0.00 0.00 86 1012.5
20260507062955 9 16 4.8 6.4 0.00 0.00 0.00 86 1012.9
20260507062452 9 32 1.6 6.4 0.00 0.00 0.00 86 1012.7
20260507061949 9 318 6.4 11.3 0.00 0.00 0.00 86 1012.9
20260507061447 10 29 4.8 9.7 0.00 0.00 0.00 86 1013.0
20260507060946 10 5 6.4 9.7 0.00 0.00 0.00 86 1013.0
20260507060442 10 349 1.6 4.8 0.00 0.00 0.00 86 1013.1
20260507055939 10 51 4.8 6.4 0.00 0.00 0.00 87 1013.3
20260507055434 10 18 3.2 4.8 0.00 0.00 0.00 87 1013.0
20260507054931 10 18 0.0 1.6 0.00 0.00 0.00 87 1013.3
20260507054427 10 5 1.6 3.2 0.00 0.00 0.00 87 1013.3
20260507053924 10 21 3.2 3.2 0.00 0.00 0.00 87 1013.4
20260507053422 10 61 4.8 6.4 0.00 0.00 0.00 86 1013.1
20260507052921 10 37 3.2 4.8 0.00 0.00 0.00 86 1013.3
20260507052418 10 21 4.8 6.4 0.00 0.00 0.00 85 1013.0
20260507051914 10 21 4.8 6.4 0.00 0.00 0.00 85 1012.7
20260507051412 11 358 6.4 11.3 0.00 0.00 0.00 86 1013.0
20260507050910 11 358 6.4 11.3 0.00 0.00 0.00 86 1013.0
20260507050406 11 348 8.0 12.9 0.00 0.00 0.00 85 1012.6
20260507045903 11 28 8.0 12.9 0.00 0.00 0.00 87 1012.5
20260507045359 11 353 1.6 3.2 0.00 0.00 0.00 87 1012.6
20260507044856 11 47 4.8 11.3 0.00 0.00 0.00 86 1012.4
20260507044352 11 64 4.8 14.5 0.00 0.00 0.00 86 1012.5
20260507043848 11 9 3.2 4.8 0.00 0.00 0.00 86 1012.7
20260507043345 11 31 8.0 11.3 0.00 0.00 0.00 87 1012.9
20260507042841 11 318 6.4 16.1 0.00 0.00 0.00 86 1012.7
20260507042337 11 352 6.4 6.4 0.00 0.00 0.00 87 1012.3
20260507041829 12 351 3.2 3.2 0.00 0.00 0.00 87 1012.3
20260507041326 12 23 3.2 4.8 0.00 0.00 0.00 87 1012.0
20260507040823 12 335 6.4 9.7 0.00 0.00 0.00 86 1012.2
20260507040319 12 36 6.4 9.7 0.00 0.00 0.00 87 1011.5
20260507035815 12 47 3.2 4.8 0.00 0.00 0.00 86 1011.9
20260507035310 12 341 3.2 4.8 0.00 0.00 0.00 86 1012.7
20260507034809 12 334 6.4 11.3 0.00 0.00 0.00 86 1012.7
20260507034305 12 350 3.2 3.2 0.00 0.00 0.00 86 1012.2
20260507033803 12 329 3.2 3.2 0.00 0.00 0.00 85 1011.9
20260507033301 12 349 3.2 6.4 0.00 0.00 0.00 86 1012.3
20260507032757 12 308 3.2 3.2 0.00 0.00 0.00 86 1012.3
20260507032253 12 353 4.8 4.8 0.00 0.00 0.00 86 1012.5
20260507031749 12 321 0.0 3.2 0.00 0.00 0.00 85 1012.5
20260507031247 12 79 3.2 4.8 0.00 0.00 0.00 85 1012.5
20260507030743 13 17 3.2 11.3 0.00 0.00 0.00 85 1012.7
20260507030241 13 312 12.9 17.7 0.00 0.00 0.00 84 1013.0
20260507025738 12 331 6.4 9.7 0.00 0.00 0.00 86 1013.0
20260507025235 12 323 3.2 3.2 0.00 0.00 0.00 87 1011.8
20260507024733 12 294 3.2 4.8 0.00 0.00 0.00 86 1011.8
20260507024230 13 332 1.6 3.2 0.00 0.00 0.00 86 1011.7
20260507023725 13 116 0.0 3.2 0.00 0.00 0.00 86 1012.0
20260507023222 13 88 4.8 6.4 0.00 0.00 0.00 85 1012.2
20260507022720 13 310 6.4 9.7 0.00 0.00 0.00 85 1012.5
20260507022215 13 355 3.2 4.8 0.00 0.00 0.00 86 1012.6
20260507021712 13 314 4.8 6.4 0.00 0.00 0.00 86 1012.6
20260507021207 13 358 11.3 14.5 0.00 0.00 0.00 87 1012.4
20260507020706 13 10 8.0 9.7 0.00 0.00 0.00 87 1012.0
20260507020202 13 318 1.6 9.7 0.00 0.00 0.00 86 1011.8
20260507015701 13 113 0.0 1.6 0.00 0.00 0.00 86 1011.4
20260507015158 13 49 0.0 3.2 0.00 0.00 0.00 86 1011.2
20260507014654 13 185 0.0 0.0 0.00 0.00 0.00 86 1011.6
20260507014150 14 208 1.6 6.4 0.00 0.00 0.00 86 1011.8
20260507013647 14 339 1.6 9.7 0.00 0.00 0.00 85 1011.8
20260507013144 14 317 4.8 6.4 0.00 0.00 0.00 85 1012.0
20260507012642 14 312 4.8 6.4 0.00 0.00 0.00 85 1011.7
20260507012136 13 352 3.2 3.2 0.00 0.00 0.00 90 1011.7
20260507011635 13 315 1.6 4.8 0.00 0.00 0.00 92 1011.5
20260507011131 13 202 0.0 0.0 0.00 0.00 0.00 92 1010.7
20260507010625 14 138 0.0 1.6 0.00 0.00 0.00 92 1011.0
20260507010121 14 132 1.6 1.6 0.00 0.00 0.00 92 1011.3
20260507005619 14 169 0.0 1.6 0.00 0.00 0.00 91 1011.3
20260507005115 14 198 1.6 3.2 0.00 0.00 0.00 90 1011.4
20260507004612 15 142 0.0 0.0 0.00 0.00 0.00 89 1011.3
20260507004109 15 222 1.6 1.6 0.00 0.00 0.00 86 1011.6
20260507003606 15 171 0.0 0.0 0.00 0.00 0.00 87 1011.7
20260507003100 15 39 0.0 1.6 0.00 0.00 0.00 85 1011.7
20260507002558 15 83 0.0 0.0 0.00 0.00 0.00 86 1011.7
20260507002053 15 105 0.0 0.0 0.00 0.00 0.00 86 1011.6
20260507001550 15 10 0.0 0.0 0.00 0.00 0.00 83 1011.5
20260507001048 15 336 0.0 0.0 0.00 0.00 0.00 84 1011.4
20260507000543 15 336 0.0 0.0 0.00 0.00 0.00 84 1011.4
20260507000039 15 316 0.0 3.2 0.00 0.00 0.00 83 1011.6
20260506235537 15 321 3.2 3.2 0.00 0.00 0.00 82 1011.4
20260506235032 15 35 4.8 6.4 0.00 0.00 0.00 83 1011.3
20260506234530 -17 0.0 0.0 0.00 0.00 0.00 1011.4
20260506234027 -17 0.0 0.0 0.00 0.00 0.00 1011.5
20260506233524 16 351 6.4 6.4 0.00 0.00 0.00 84 1011.2
20260506233021 16 351 6.4 6.4 0.00 0.00 0.00 84 1011.3
20260506232517 16 68 3.2 3.2 0.00 0.00 0.00 87 1011.3
20260506232012 16 268 3.2 4.8 0.00 0.00 0.00 85 1011.3